Theta_e
310 310 310 311 313 316 315 314 313 313 313 313 313 312 312 315 317 317 318 318 321 333 336 336 335 329 335 337 340 343 344 343 340 337 334 344 347 346 346 347 348 348 347 342 338 337 336 337 336 334 331 323 316 315 315 315 316 316 317 318 318 318 317 315 314 311 311 311 311 311 311 312 311 313 313 312 312 313 317 321 325 330 333 334 336 336 336 337 337 336 336 335 335 336 336 335 335
309 309 310 313 315 317 318 315 313 314 313 311 312 313 313 315 318 317 318 319 319 334 340 339 340 338 339 339 341 344 346 345 343 344 343 345 346 346 347 348 348 348 346 341 338 337 336 337 336 335 331 323 316 315 315 315 315 316 317 318 318 317 315 313 311 310 311 311 311 311 311 312 312 313 313 312 312 314 317 322 327 331 334 335 335 336 336 337 337 337 336 336 336 336 335 335 334
309 310 312 315 316 317 318 315 312 313 311 310 311 313 314 314 317 316 318 319 317 325 330 335 342 342 342 342 343 344 345 346 345 346 345 345 346 347 348 348 348 347 344 341 340 337 337 337 336 335 331 323 316 315 315 315 316 316 318 318 317 315 313 312 311 310 311 311 311 311 311 312 313 313 313 312 312 314 316 323 330 331 332 335 335 335 336 337 337 337 337 336 335 335 335 335 335
309 311 314 317 318 318 318 315 314 312 309 310 311 313 313 315 317 316 318 318 318 319 318 332 345 345 346 344 345 346 347 346 346 346 345 346 346 346 348 348 347 346 343 341 340 337 337 337 336 335 331 323 317 315 315 315 316 317 317 316 315 314 313 312 311 311 311 311 311 311 311 312 313 314 313 312 312 314 317 323 328 329 330 334 335 335 336 337 337 337 336 335 334 334 334 334 334
309 312 316 317 318 319 317 315 315 312 310 312 311 314 314 315 317 316 318 317 320 316 315 337 347 344 347 346 345 347 347 347 346 346 345 346 345 345 348 348 347 346 343 341 339 337 336 336 336 335 331 324 318 316 316 315 316 317 317 315 315 314 313 312 311 311 311 311 311 311 312 312 313 314 314 313 312 314 316 320 324 326 327 330 333 334 335 335 335 335 335 334 333 333 333 333 334
309 314 318 317 317 318 316 315 315 313 313 313 312 315 315 315 316 317 318 318 325 320 319 338 345 344 348 346 346 347 347 347 345 345 345 345 344 344 347 348 348 346 343 340 338 337 336 336 336 336 332 326 320 318 316 315 315 316 316 315 314 314 314 313 312 311 311 311 311 311 312 312 313 314 314 313 312 312 315 318 321 323 324 327 329 331 331 331 331 332 332 332 331 331 330 330 329
311 315 319 317 316 316 317 316 315 316 315 314 314 315 316 317 317 318 318 319 325 329 334 342 343 344 347 345 347 347 346 346 345 345 345 344 344 345 347 349 349 346 342 339 337 337 336 336 336 336 333 327 323 319 317 315 314 315 315 315 315 315 314 313 313 312 311 311 311 311 312 312 312 313 314 313 312 312 314 317 320 322 324 326 327 328 328 327 327 328 329 329 329 328 326 323 321
313 316 319 316 316 316 317 317 316 317 315 314 315 316 318 319 318 318 319 319 316 326 342 344 342 342 346 346 348 347 345 345 346 345 345 345 344 344 346 348 347 343 340 338 337 337 337 337 337 337 334 329 325 320 317 316 315 314 313 314 315 314 315 314 313 312 312 311 311 311 312 312 312 312 313 313 312 312 313 317 320 323 324 326 326 326 325 324 324 325 327 327 325 322 320 318 316
315 316 317 316 315 315 315 315 315 315 315 315 316 317 319 318 319 318 318 318 314 326 343 344 339 338 346 347 348 348 345 346 346 345 346 345 344 344 345 346 344 340 338 337 337 337 337 338 337 337 335 331 327 321 318 319 320 318 315 313 314 314 314 314 314 314 312 312 311 311 312 312 313 312 312 312 312 311 313 316 319 322 325 325 325 324 323 322 322 324 325 323 321 320 318 316 315
317 316 316 315 314 314 314 313 314 314 314 316 316 317 318 317 317 318 317 317 324 339 345 342 339 340 346 347 348 347 345 346 346 346 347 346 345 344 345 345 343 339 338 337 337 338 337 338 338 338 336 333 328 323 321 324 325 324 321 317 316 316 315 314 314 314 313 313 312 312 312 313 313 312 312 313 312 312 312 315 319 322 325 325 325 323 322 322 321 321 321 320 321 321 319 317 314
318 316 314 314 313 312 313 312 314 314 315 315 317 317 316 316 315 317 316 318 334 347 344 341 342 345 347 347 347 346 345 346 346 347 346 347 346 345 345 344 343 339 338 337 336 337 337 339 340 338 337 335 330 326 323 326 329 329 327 324 323 322 321 319 316 315 314 313 314 313 312 313 312 312 314 315 313 312 312 314 318 322 324 325 324 323 322 322 320 320 321 322 323 322 320 318 315
317 316 314 315 314 312 313 313 315 316 317 317 317 317 313 314 315 316 314 318 339 347 342 341 343 345 345 345 347 346 346 346 347 347 347 348 346 345 346 345 344 341 339 338 336 337 337 339 340 339 338 337 333 328 325 327 330 332 331 330 329 329 328 326 322 320 317 315 315 314 313 313 313 317 321 319 315 313 312 313 317 321 323 324 323 322 322 322 320 320 323 325 324 323 322 321 318
317 316 314 314 313 314 314 314 315 317 319 317 316 315 313 313 313 319 322 327 341 343 339 339 340 344 345 345 346 346 346 347 347 348 348 348 347 346 346 346 346 343 340 338 336 337 338 338 339 339 338 338 335 332 327 326 329 332 332 332 332 331 331 330 327 325 324 321 317 315 315 313 316 323 325 320 316 314 313 312 315 319 322 322 322 321 322 322 320 320 324 326 324 324 325 324 321
317 316 315 314 313 315 315 314 315 316 317 316 315 313 317 318 316 330 337 337 342 342 340 339 340 345 346 346 346 346 346 346 347 348 348 348 348 347 346 346 346 344 340 337 336 336 337 338 339 339 339 338 337 335 332 327 328 331 332 332 333 332 332 332 330 327 326 326 323 320 317 316 321 324 322 320 318 316 314 312 313 317 320 321 320 320 322 322 320 320 324 326 325 326 326 325 323
317 316 316 316 314 314 314 315 315 315 316 315 314 311 320 326 323 336 342 339 344 342 341 341 341 343 344 345 344 345 346 347 347 347 348 347 347 346 346 346 345 344 341 337 337 336 336 337 338 340 340 339 338 338 336 333 330 330 331 331 332 333 332 333 332 328 327 327 327 325 322 324 327 324 320 320 319 318 316 312 312 315 319 320 319 319 321 322 321 319 323 327 326 327 327 325 323
318 316 316 316 315 314 314 315 314 315 316 314 314 310 320 333 331 337 338 339 345 343 343 342 341 341 341 342 341 343 346 346 346 347 347 346 345 345 344 344 343 342 341 339 338 337 337 336 338 340 341 341 340 340 339 338 336 333 331 330 330 332 333 333 333 330 328 329 329 329 330 331 332 327 322 321 320 320 317 313 311 312 317 319 319 318 320 322 321 320 323 327 327 328 328 325 324
318 317 316 315 314 314 314 315 315 314 315 313 314 311 317 333 337 340 340 341 345 344 344 342 340 341 339 340 340 343 346 346 346 346 345 344 343 343 343 343 341 341 341 340 339 338 338 338 339 341 342 342 341 341 340 340 340 338 336 333 330 331 333 333 333 331 330 331 332 334 335 335 335 333 328 323 322 322 318 315 311 310 314 318 318 318 319 321 322 322 323 326 327 328 328 326 324
318 317 316 315 314 314 314 315 314 312 315 314 314 313 313 328 341 342 342 343 344 343 343 341 340 341 338 340 341 343 346 346 346 346 344 344 343 342 343 342 341 341 341 340 339 338 339 340 340 341 341 341 341 341 340 340 340 340 339 337 334 332 334 334 334 333 331 333 335 335 335 335 335 335 333 326 322 324 321 317 313 310 311 316 319 318 319 321 322 324 325 326 326 327 327 325 323
316 315 315 315 315 314 314 314 313 312 314 314 314 313 310 322 337 339 340 343 343 343 342 341 341 341 338 340 343 343 345 346 346 346 344 343 342 342 342 341 341 340 340 340 339 338 339 339 339 340 341 341 341 341 340 340 340 340 339 339 336 333 335 335 336 335 333 334 335 335 334 335 334 334 334 328 323 324 322 319 316 312 309 313 318 319 319 320 321 325 327 328 327 327 328 325 323
316 315 315 316 315 314 314 313 314 314 314 314 314 314 311 316 321 327 339 342 341 342 343 344 342 341 340 341 344 344 345 346 346 345 343 342 342 342 342 341 340 340 341 340 338 338 338 339 339 339 340 341 341 340 340 340 339 339 339 339 337 335 335 336 336 335 334 333 333 334 335 335 335 334 333 329 326 325 323 321 318 314 310 312 317 320 321 320 321 324 328 329 328 327 328 327 324
315 315 316 315 313 314 315 314 315 315 313 313 313 313 313 314 312 324 341 338 336 339 339 339 340 339 338 341 344 344 345 345 345 344 343 342 341 341 341 341 340 341 340 339 339 339 338 338 339 339 338 339 340 339 339 339 339 338 339 339 338 337 336 336 335 335 334 333 331 333 335 334 334 334 333 332 330 327 324 322 319 316 312 311 316 321 322 322 321 324 328 330 330 328 328 328 325
315 315 316 316 313 314 316 315 315 314 312 312 312 313 314 314 316 333 340 327 327 331 330 332 335 337 337 340 343 343 345 345 345 344 342 341 340 339 339 340 340 340 339 339 340 338 339 338 337 337 335 334 335 336 336 337 337 338 337 337 337 337 336 335 335 334 334 333 332 333 334 333 334 333 333 334 333 330 326 322 320 319 314 311 315 320 323 324 323 325 327 329 331 330 329 329 327
314 314 313 315 314 315 316 315 314 314 312 312 313 313 313 313 317 333 332 319 320 322 325 331 334 337 337 340 342 342 343 343 345 344 342 342 340 338 337 338 337 337 338 340 337 335 339 337 332 332 330 330 331 331 332 334 336 337 336 336 336 336 335 334 334 335 334 332 332 333 333 334 333 331 331 333 333 332 329 324 322 321 317 313 315 320 324 326 326 326 328 329 331 331 330 329 327
314 314 312 314 314 315 315 315 315 314 312 313 313 312 313 313 313 323 322 315 317 316 325 333 334 337 337 339 341 341 342 343 344 344 343 342 341 340 338 337 336 336 338 338 334 332 334 333 329 328 328 329 329 329 330 332 334 335 335 335 334 334 334 333 333 334 334 332 332 332 334 334 332 330 329 331 331 331 331 327 324 323 321 317 316 320 325 328 329 328 328 330 330 331 330 329 328
313 315 314 315 314 314 315 315 315 313 313 312 312 312 312 313 312 315 316 316 317 316 327 334 335 338 337 338 339 340 342 343 344 343 343 342 342 341 339 338 335 336 338 336 333 332 332 331 330 329 328 330 329 327 327 331 334 334 334 333 332 332 333 332 332 333 333 332 331 332 334 335 332 330 329 329 329 329 330 329 326 324 324 322 318 320 326 329 331 330 330 330 330 330 330 330 328
314 315 314 315 315 315 316 315 314 313 312 312 312 313 312 312 312 313 316 318 319 321 330 335 336 338 338 337 338 340 341 342 343 343 342 342 342 342 341 340 338 337 337 336 334 333 333 332 331 329 329 330 329 326 325 328 332 333 333 331 328 329 330 330 331 332 332 331 331 332 334 335 334 331 330 329 328 328 328 328 328 326 325 325 322 320 325 330 330 330 330 330 331 330 330 330 328
314 315 314 315 315 315 315 313 313 312 312 312 312 313 312 311 312 314 320 324 327 329 333 336 337 338 337 336 337 339 341 342 343 342 342 342 342 342 342 341 340 340 338 338 337 335 334 333 332 331 329 330 330 328 327 328 330 333 333 330 327 326 327 328 328 330 331 330 329 332 335 335 334 332 331 330 329 329 327 324 326 327 325 326 326 322 324 328 330 330 330 330 330 330 330 329 328
314 314 313 314 313 313 313 312 312 311 312 312 312 312 312 312 313 315 323 329 334 336 335 337 338 338 338 337 338 339 339 342 343 343 342 342 342 342 342 341 341 340 339 338 338 337 336 333 332 331 330 330 330 330 329 329 329 331 332 329 327 326 325 325 326 327 328 328 328 332 335 335 334 333 331 331 330 330 328 325 325 326 326 326 327 325 323 326 329 330 330 330 330 330 330 329 328
312 312 312 313 312 312 312 311 311 311 312 313 312 314 313 313 313 313 325 333 333 336 337 337 338 338 338 337 338 339 339 340 341 342 342 342 342 342 342 342 341 340 340 339 338 338 337 334 332 331 331 330 330 331 330 330 329 330 330 329 328 327 326 325 324 323 324 326 327 331 335 335 334 332 331 332 331 330 329 328 326 326 327 326 326 327 325 324 327 329 330 330 330 330 329 328 328
311 311 312 313 313 313 312 309 309 310 312 313 312 314 313 314 313 311 328 339 335 336 339 337 338 339 339 338 337 338 338 339 340 341 342 342 342 342 342 342 341 341 341 340 339 338 338 336 333 330 330 330 330 330 330 330 330 330 330 330 330 329 328 326 325 323 322 323 326 330 335 336 334 332 331 332 331 331 330 329 328 327 327 327 326 327 327 325 325 327 328 329 329 329 328 328 329
311 310 311 312 312 313 312 310 310 312 312 312 312 314 312 313 312 308 325 341 340 338 340 338 339 340 339 339 337 337 337 337 339 340 342 342 343 343 342 342 342 341 341 341 340 339 339 338 336 332 329 330 330 330 330 330 330 330 330 330 330 330 330 328 326 323 321 322 325 330 334 336 335 331 331 332 330 331 331 330 329 328 327 327 326 326 328 328 326 326 327 328 328 328 328 329 330
310 312 312 311 311 312 312 311 311 312 312 311 311 314 312 311 313 310 322 340 341 339 341 339 340 341 341 341 338 338 337 336 338 340 343 343 343 343 343 342 342 341 340 341 340 339 339 339 338 335 330 329 330 330 330 330 330 330 330 330 331 331 330 329 328 325 322 321 323 328 333 336 335 332 331 331 330 329 330 330 329 327 323 323 325 326 327 328 328 327 327 328 328 328 328 329 329
310 312 313 311 311 312 312 311 310 310 311 312 312 313 312 312 318 317 320 335 341 340 340 339 340 340 341 342 341 341 339 337 340 341 342 342 341 341 341 341 340 340 340 340 340 339 339 339 339 336 332 331 331 330 330 329 330 330 330 330 330 330 330 330 329 326 323 321 322 327 331 334 335 333 330 331 330 328 329 330 329 325 321 319 321 323 326 328 329 328 328 328 328 328 328 328 327
311 311 313 311 311 311 311 312 311 310 312 313 312 313 316 319 324 324 322 327 335 339 340 339 340 340 340 341 341 341 341 341 341 341 341 341 341 341 340 340 339 339 339 339 339 338 338 338 337 335 333 332 333 333 332 331 330 329 329 330 330 330 330 330 329 327 325 323 323 326 330 333 335 333 331 331 330 329 328 330 329 326 323 321 320 321 324 327 329 329 329 329 329 328 328 327 326
312 312 313 311 311 311 311 313 311 312 313 313 312 316 322 325 326 328 327 325 328 332 334 335 338 339 339 340 340 341 341 341 341 340 340 340 341 341 341 340 339 338 337 337 337 336 336 336 335 335 333 332 333 333 332 332 331 330 330 331 332 331 331 330 330 329 327 325 324 326 329 331 334 333 331 331 331 330 328 329 329 327 326 325 323 323 324 326 329 329 329 328 328 327 327 327 327
312 312 313 312 311 311 311 312 310 311 312 314 318 322 325 327 327 328 329 328 329 330 330 332 335 339 340 340 340 340 340 340 340 339 340 340 341 341 341 339 339 338 338 337 336 335 335 334 334 334 334 333 333 332 332 332 332 331 331 331 331 331 331 331 331 331 329 327 326 327 328 331 333 333 332 332 331 330 328 328 329 328 327 326 325 324 324 326 328 329 328 328 328 327 327 329 329
312 312 311 311 311 311 312 311 310 310 312 316 322 325 325 326 326 327 329 329 329 330 331 332 333 335 337 337 339 339 340 340 339 339 340 341 341 341 341 340 339 339 338 338 337 337 335 334 333 331 330 332 333 332 332 332 333 333 332 332 332 331 331 332 332 332 330 328 327 327 327 331 333 333 332 332 331 331 329 328 329 329 328 327 326 326 326 327 328 328 328 328 329 328 328 329 330
312 311 311 310 310 311 311 310 310 310 315 320 323 325 324 325 326 327 329 328 329 329 330 331 332 333 333 334 336 337 338 339 339 340 341 341 341 341 341 340 341 339 338 338 338 337 334 333 332 327 327 331 332 333 332 333 335 335 334 334 334 333 333 333 333 333 332 330 329 328 327 330 332 332 333 332 331 331 329 329 329 329 329 328 328 329 328 328 328 329 329 328 328 329 329 330 331
312 311 311 311 310 311 311 311 311 310 316 321 323 325 324 324 326 327 329 328 329 329 330 330 331 332 332 333 335 336 337 338 339 340 340 340 340 340 340 340 339 339 338 338 337 334 331 330 329 326 326 329 331 331 331 333 335 336 336 335 335 335 335 334 334 334 334 332 330 329 329 330 331 331 333 333 332 331 329 329 329 329 329 329 329 329 328 328 329 329 329 329 329 329 330 330 331
313 312 311 311 310 311 312 312 312 311 316 321 325 327 325 324 326 327 328 328 328 329 329 329 330 330 331 331 333 335 337 338 338 339 338 339 338 338 339 338 337 338 337 337 335 330 328 327 326 325 325 327 329 329 329 331 335 336 335 336 335 335 335 335 335 334 334 334 332 330 331 330 330 331 332 333 333 331 329 329 329 329 329 329 329 330 329 329 330 329 329 329 330 330 330 330 330
312 313 312 312 311 311 312 312 312 314 318 321 323 326 326 325 326 327 327 328 328 329 329 329 329 329 329 330 330 331 333 335 335 336 336 336 337 337 337 337 337 335 333 333 331 327 327 328 326 324 325 326 326 327 328 330 334 335 334 335 334 334 334 334 334 333 333 333 332 330 330 331 331 331 333 334 333 332 330 330 329 329 329 330 330 330 330 329 329 330 330 330 330 331 331 330 330
312 313 312 312 312 312 312 312 313 317 321 319 315 320 326 325 326 327 327 327 327 328 328 328 327 327 327 328 328 329 329 331 331 331 332 334 335 335 336 336 335 331 329 331 330 326 326 328 328 327 327 327 326 327 328 330 333 335 335 335 334 334 334 334 333 334 333 333 332 331 331 331 332 333 334 333 332 332 331 330 329 329 329 330 330 331 331 330 329 329 330 330 330 331 331 330 330
311 313 312 311 312 312 312 312 312 315 318 315 312 318 325 326 327 327 327 327 327 327 328 327 326 325 325 325 325 326 326 327 328 328 329 330 332 334 335 334 332 331 331 332 329 326 325 327 328 328 328 328 328 328 329 331 333 334 335 335 334 334 333 333 333 334 334 333 333 332 331 331 332 333 333 333 332 332 331 330 329 329 330 330 330 331 331 330 329 329 330 330 331 331 331 331 331
312 313 312 310 311 312 312 312 312 313 314 312 313 318 325 328 327 326 326 327 327 327 327 326 325 324 324 323 323 323 323 325 326 327 327 327 328 330 333 333 332 332 334 332 329 327 325 326 326 326 328 329 331 331 332 333 333 334 334 334 334 334 334 334 333 334 333 332 331 331 332 332 331 331 332 334 333 332 332 331 330 330 330 331 331 330 330 330 330 330 329 329 330 331 331 331 331
312 311 310 310 311 311 311 311 313 314 313 313 314 317 324 327 326 326 326 327 328 328 327 325 324 322 321 321 320 320 321 323 325 325 325 326 327 328 329 331 332 332 334 333 331 330 328 327 326 326 326 328 330 331 332 334 333 332 332 332 331 332 333 333 333 333 331 329 330 331 331 331 331 331 332 334 333 332 332 331 330 330 330 331 331 330 330 330 331 330 328 327 329 330 331 331 331
310 309 309 311 312 312 312 312 313 314 314 313 314 314 321 326 325 325 327 328 329 328 327 325 322 320 320 319 318 318 320 323 324 323 323 325 325 326 327 328 329 329 330 332 332 332 331 330 329 328 327 327 328 329 330 331 330 330 330 330 330 330 331 332 332 331 330 329 331 332 331 331 331 331 332 332 332 331 332 332 331 330 330 331 330 329 328 329 331 330 328 328 328 330 331 331 330
309 309 310 311 312 313 314 314 313 314 313 313 314 313 318 324 326 328 328 328 328 327 326 324 321 320 318 317 316 316 317 320 322 324 324 324 325 325 326 327 327 327 328 329 330 331 332 332 332 331 330 329 329 329 329 330 330 331 331 331 331 331 331 332 332 331 330 329 331 331 331 331 331 331 331 331 331 331 332 332 332 331 329 330 330 328 326 328 330 330 329 328 329 329 330 330 330
310 311 312 311 313 313 314 314 314 313 313 315 314 314 318 324 328 329 327 326 326 326 325 322 320 318 316 316 315 315 316 317 320 323 323 324 324 324 325 325 325 326 326 327 328 329 330 331 332 332 331 331 331 330 330 330 331 332 332 332 333 332 332 332 331 330 329 330 331 331 330 331 330 330 331 332 332 332 332 333 332 331 329 329 329 327 326 328 329 329 329 329 329 329 330 330 329
310 312 312 312 313 314 314 314 314 313 313 314 313 315 324 331 329 328 327 326 325 323 323 320 318 317 315 314 314 315 317 317 319 320 321 322 323 323 323 324 324 325 325 326 326 327 328 329 330 330 330 330 330 329 329 330 331 332 332 333 333 332 332 331 330 329 329 330 331 331 331 330 330 329 329 330 332 331 332 332 332 331 330 329 329 327 326 328 329 328 328 328 328 328 329 329 329
310 312 312 312 313 314 314 313 313 313 313 313 313 318 329 333 329 327 326 324 323 322 320 318 316 315 314 313 313 315 316 317 317 317 318 319 320 321 322 323 323 324 325 325 325 325 326 327 327 328 328 329 329 329 329 329 330 331 331 331 331 331 331 330 329 329 329 330 331 332 331 328 327 327 327 328 330 330 329 330 330 330 330 330 328 326 326 327 328 328 328 327 327 328 328 328 329
310 312 312 313 314 314 314 313 313 314 314 316 317 321 328 331 328 326 325 323 322 321 318 317 315 314 313 313 312 313 314 316 316 316 316 317 318 320 321 322 322 323 324 324 323 324 325 325 325 326 327 327 328 328 328 328 329 329 330 330 330 330 330 329 329 329 328 329 331 331 330 327 324 324 325 326 328 330 330 329 329 329 329 330 329 327 327 328 328 328 328 327 327 328 329 329 328
310 309 311 313 314 316 314 312 314 316 316 317 321 323 325 327 326 324 324 323 321 320 317 315 314 313 313 312 312 312 312 313 314 315 315 316 317 318 319 320 321 321 322 323 323 324 324 325 325 325 325 326 326 326 327 327 328 328 329 329 330 330 329 329 329 328 328 328 330 330 329 328 325 325 325 325 327 329 330 330 329 328 327 329 330 330 329 329 328 328 328 327 327 327 329 329 328
310 309 312 312 312 316 315 311 312 315 316 317 320 326 326 325 327 324 322 321 320 318 316 315 314 313 312 312 311 311 311 312 312 313 314 315 316 316 317 318 319 320 321 321 321 322 323 324 325 326 326 326 326 326 326 326 326 327 328 329 329 329 329 328 327 328 328 328 329 329 328 327 327 326 325 327 327 327 328 329 330 330 328 327 329 330 330 329 329 328 328 327 327 327 328 329 329
311 311 312 310 310 314 315 313 312 313 318 319 320 326 328 326 328 326 323 322 320 317 316 315 313 313 312 311 311 310 310 312 313 313 314 314 315 316 316 316 317 317 318 319 320 321 321 323 324 325 325 326 326 327 327 327 326 326 328 328 329 328 327 327 326 327 328 328 328 328 327 327 327 327 325 326 327 326 327 327 328 330 330 327 326 328 329 330 329 329 329 328 329 328 328 329 329
311 312 312 311 313 313 312 314 313 313 319 321 322 325 325 325 326 327 326 323 320 317 315 314 313 312 311 310 310 309 310 311 312 313 313 314 314 315 316 316 316 316 317 319 320 320 321 322 323 324 324 325 326 327 327 327 326 327 327 328 328 328 327 327 327 327 328 328 328 328 327 326 327 327 326 326 327 327 328 328 328 330 330 328 326 326 327 328 329 329 329 329 329 328 328 329 329
311 311 311 312 314 314 313 314 313 315 319 321 324 324 323 324 324 325 326 322 319 317 314 313 312 311 310 309 308 309 309 309 310 311 313 313 314 315 315 315 315 315 316 316 317 319 320 320 321 322 322 323 324 325 326 327 327 327 328 328 328 328 329 329 328 328 328 328 328 327 326 326 326 326 326 327 328 328 329 328 328 329 328 327 327 327 327 327 328 329 329 329 329 328 328 328 328
311 312 312 312 312 312 313 313 312 315 319 321 325 324 323 323 321 323 324 320 318 316 313 312 311 310 309 308 307 308 308 308 309 310 312 313 314 315 315 314 314 314 314 315 316 316 317 317 317 317 318 318 319 321 323 324 325 325 326 327 328 328 329 329 329 329 328 328 327 326 327 328 328 326 326 328 329 329 329 329 328 328 327 326 326 326 326 326 328 329 328 328 328 327 329 329 329
312 314 314 313 313 312 312 312 312 315 318 320 322 323 323 320 318 320 320 317 315 314 312 312 310 309 308 307 307 307 307 308 309 310 312 313 314 314 314 314 314 314 314 314 315 315 315 315 315 315 315 316 316 317 318 319 320 321 322 324 326 327 328 328 328 329 329 329 328 327 328 329 329 327 327 328 329 329 329 328 327 326 326 325 325 325 326 326 328 329 329 329 327 328 329 330 330
Wind_Speed
3 5 6 7 7 7 5 4 1 2 0 1 1 1 2 2 2 3 4 4 2 3 4 3 1 2 3 7 10 9 5 1 2 0 1 6 13 15 16 18 22 24 27 29 26 25 23 21 19 18 16 15 16 17 17 18 19 19 18 17 16 15 15 14 13 13 13 13 12 12 12 12 11 12 11 12 13 14 18 20 23 25 24 23 22 21 20 21 20 19 19 19 19 18 17 17 17
4 6 7 8 8 5 3 2 1 1 1 2 2 2 0 1 2 3 4 3 3 3 4 6 7 7 6 10 11 7 6 3 2 3 6 14 16 15 15 18 21 24 29 30 27 26 24 22 20 18 16 15 16 16 17 17 18 18 17 17 17 16 15 14 14 14 14 13 12 12 12 12 12 12 11 12 13 14 17 19 22 25 24 23 22 22 22 21 20 19 19 19 18 18 18 17 16
6 7 8 8 6 4 3 1 1 1 2 3 2 3 1 2 5 4 4 5 7 9 9 6 5 7 3 5 5 3 3 3 4 6 11 15 15 15 15 17 21 25 30 29 27 26 24 23 20 18 16 16 15 16 16 16 17 17 17 17 17 17 15 15 15 15 14 13 12 12 13 12 12 11 11 12 13 14 16 19 21 23 23 22 22 22 22 20 20 18 17 17 17 17 17 16 15
6 8 8 7 5 3 3 0 1 2 2 2 1 3 3 4 3 2 4 8 14 14 10 4 3 6 5 4 4 3 4 2 5 9 12 14 12 15 16 18 22 26 29 28 27 26 25 23 21 19 17 16 15 15 15 15 16 16 17 17 17 16 15 15 15 15 14 13 12 13 13 12 12 11 11 12 12 13 15 18 19 20 21 21 21 22 22 20 19 17 17 16 16 15 15 14 14
7 9 8 6 3 2 2 1 2 2 3 2 1 1 3 4 1 2 6 12 15 10 7 2 2 4 7 5 3 1 4 4 7 9 11 13 13 15 18 20 25 27 28 28 28 27 25 23 21 19 17 16 16 15 15 14 14 15 16 16 16 15 14 14 14 14 14 13 13 13 13 12 12 10 10 11 13 13 14 16 18 19 19 19 20 20 20 19 18 17 16 16 15 14 13 13 13
8 9 7 5 3 2 2 1 2 3 3 2 2 1 2 3 2 5 9 11 9 3 7 5 3 5 5 4 3 2 4 5 9 11 13 15 15 16 19 23 26 27 28 28 28 27 25 24 22 20 18 17 16 16 14 13 13 14 16 16 15 14 14 13 14 14 14 13 13 13 13 12 12 10 10 11 13 13 13 14 16 17 17 18 18 18 17 16 15 15 15 15 14 12 12 12 12
9 8 5 4 4 2 1 1 2 3 2 4 4 4 2 1 2 6 9 6 5 6 6 7 9 8 3 2 3 2 4 7 10 12 15 17 17 17 20 23 27 27 28 27 27 26 24 23 22 20 18 17 17 16 14 13 13 14 15 15 15 14 13 13 13 13 13 13 13 13 13 12 12 11 10 11 13 13 13 14 16 17 17 17 17 17 15 14 14 14 15 14 13 12 13 13 13
9 6 3 2 1 2 1 0 2 2 1 3 5 8 9 6 4 7 7 2 2 3 6 10 11 5 1 0 1 3 5 8 11 14 16 18 19 19 21 23 26 27 27 27 26 26 24 23 22 20 18 18 17 16 14 14 13 14 15 15 14 13 12 12 12 13 13 13 13 13 12 12 12 11 10 11 12 12 13 14 15 16 16 17 17 15 14 13 13 14 15 14 14 14 15 15 14
9 5 3 2 1 0 1 1 2 2 3 5 7 11 13 12 8 8 7 3 2 2 5 7 6 2 3 2 2 6 6 9 12 17 17 17 20 20 21 23 24 25 25 26 26 25 24 22 21 20 18 18 17 15 15 14 13 13 14 14 13 12 11 11 11 12 12 12 13 13 12 12 12 11 10 10 12 12 13 13 15 16 16 16 15 14 13 13 13 15 16 16 16 16 15 15 16
7 3 3 1 1 1 1 1 1 2 4 5 8 14 15 13 10 10 7 1 2 5 4 4 4 5 8 3 2 8 10 12 15 19 19 18 20 20 21 22 23 24 25 26 25 24 24 23 21 20 18 16 16 15 14 14 13 13 13 13 12 11 10 10 10 11 11 11 12 12 12 11 12 11 10 10 11 12 12 13 14 16 16 15 14 13 12 13 14 16 17 18 17 15 15 16 17
4 3 3 1 1 1 1 2 3 4 5 5 8 11 11 10 8 7 5 3 5 6 7 6 6 9 9 2 3 12 15 15 18 20 20 19 20 20 21 22 23 23 24 25 25 24 25 24 21 20 18 16 15 14 14 14 13 12 12 12 11 10 10 9 9 9 9 9 11 12 11 11 12 12 11 10 11 12 12 13 14 15 16 15 13 12 11 12 14 17 18 18 16 15 15 16 18
3 2 2 1 1 1 1 2 4 5 6 5 4 6 10 6 3 3 4 6 7 9 7 4 8 12 8 2 6 14 17 17 19 20 20 20 20 20 20 21 23 23 23 23 24 24 24 24 22 20 19 16 15 14 14 13 12 12 12 11 11 10 9 9 8 8 8 7 9 10 11 12 12 12 11 12 11 11 12 13 14 15 16 15 12 10 10 11 13 16 17 17 15 14 15 16 18
3 2 2 1 1 1 1 1 3 4 4 2 2 10 13 4 3 3 7 8 7 7 4 4 12 11 5 3 8 15 17 18 19 19 21 20 19 19 19 19 21 22 22 22 23 23 23 24 22 22 21 19 17 15 14 13 12 12 11 12 11 10 9 8 8 7 7 7 7 9 10 11 12 12 11 12 12 11 11 12 14 15 15 14 12 9 9 9 11 14 15 15 14 14 15 16 17
4 3 2 1 1 1 1 2 2 2 2 1 4 14 11 3 1 7 10 9 4 2 4 10 15 7 3 5 7 16 19 18 18 18 21 19 18 18 17 16 17 19 21 23 22 22 23 24 23 22 22 21 19 16 14 12 12 12 12 12 10 9 8 8 7 6 6 6 7 8 9 9 11 11 10 12 13 12 11 12 13 15 15 14 12 10 9 8 9 12 13 13 13 14 15 16 17
6 3 1 1 2 0 2 2 1 0 1 1 6 16 9 4 2 7 7 7 4 6 11 12 12 2 4 6 3 16 21 19 19 18 20 18 18 16 16 16 16 17 18 21 21 21 23 24 24 22 22 21 19 17 15 14 13 14 13 12 10 9 7 7 6 6 7 7 7 7 8 8 9 9 9 10 13 13 12 12 13 15 16 15 13 11 9 8 8 10 11 11 12 13 14 15 17
7 4 1 1 2 1 2 2 0 1 1 1 7 16 7 4 4 3 3 8 10 13 13 8 10 1 3 5 2 15 21 19 20 19 19 18 17 16 16 16 16 16 16 19 19 19 22 24 24 21 20 20 19 17 15 15 14 14 14 12 10 9 8 7 6 6 7 8 8 8 8 8 7 7 7 9 11 12 12 12 13 15 17 16 14 12 11 9 8 8 9 10 11 12 13 14 16
8 3 1 1 2 3 3 4 3 1 2 1 7 15 5 3 5 5 7 14 14 14 10 6 10 3 4 5 2 16 20 18 21 20 20 18 17 16 16 16 16 17 16 17 18 19 20 21 22 20 20 19 18 17 16 16 14 14 13 11 10 9 8 7 7 8 9 9 9 8 9 9 8 7 6 7 10 11 12 13 13 15 17 17 16 14 12 11 9 8 9 9 10 11 12 13 14
6 2 2 2 3 3 4 5 3 0 3 4 7 11 4 1 4 9 10 11 11 10 7 6 9 6 8 7 3 15 19 19 22 21 21 19 17 18 18 18 18 18 18 18 19 19 19 20 20 19 20 20 19 18 17 16 15 14 13 12 11 11 10 9 9 10 10 10 10 10 10 10 9 9 7 6 8 10 12 13 14 15 17 18 17 16 14 12 10 8 8 9 9 10 10 11 12
4 2 3 4 4 2 3 3 2 2 5 8 9 9 6 2 5 7 5 4 5 5 4 6 8 6 10 9 7 15 19 20 22 21 21 20 18 18 20 19 19 19 18 19 19 19 19 19 20 20 19 19 19 19 17 16 15 14 14 13 12 12 12 11 11 11 11 11 11 10 10 10 9 9 8 7 9 10 11 12 13 14 16 19 19 17 16 14 12 9 8 8 9 9 8 9 10
3 2 4 5 3 3 4 5 7 8 9 8 9 11 10 4 4 5 4 5 3 3 4 5 7 9 13 12 11 17 20 20 21 21 20 19 16 16 18 20 20 19 18 18 18 19 19 19 20 21 20 18 18 18 18 17 16 15 15 14 14 13 13 13 13 12 12 12 12 11 10 10 9 9 9 8 9 10 11 12 13 14 16 19 20 20 18 16 13 11 9 8 10 10 8 8 9
4 4 4 2 2 3 6 7 9 10 7 5 7 11 10 8 5 6 8 6 2 4 7 6 8 13 16 14 14 19 20 21 22 22 19 17 15 14 15 18 19 18 17 17 17 18 19 20 19 20 20 18 18 19 18 17 17 16 16 16 15 15 14 14 13 13 12 12 12 12 11 10 9 9 10 9 9 10 10 11 14 14 15 19 22 22 21 18 16 13 10 9 10 10 8 7 8
4 4 4 4 3 3 6 7 8 7 5 5 7 8 7 11 7 9 9 3 2 3 6 5 8 13 15 16 18 20 21 22 23 23 21 18 16 16 15 17 18 18 18 17 19 19 19 21 21 19 19 19 19 19 19 19 18 17 18 18 17 16 15 14 13 12 12 13 13 13 12 10 10 10 11 11 10 10 10 11 14 14 15 18 21 22 22 20 17 15 12 10 9 9 8 7 7
4 2 3 9 9 7 8 8 10 10 8 7 6 6 5 8 5 6 6 3 2 3 3 3 8 14 15 16 19 20 20 22 24 25 23 18 17 17 17 18 19 19 18 18 20 21 20 22 22 20 18 18 19 19 20 20 18 17 18 19 18 17 16 15 13 13 12 13 13 13 12 11 11 11 12 12 11 10 10 11 14 14 14 17 21 22 22 21 18 16 14 11 9 8 7 6 6
5 3 3 8 11 11 11 12 14 15 14 11 10 9 4 3 3 3 6 4 3 3 4 6 9 15 15 16 19 19 19 21 23 24 21 16 14 14 15 17 20 19 17 19 21 22 22 22 20 18 17 18 19 19 20 19 17 16 17 18 18 18 17 15 14 14 13 14 14 13 12 12 12 11 12 12 11 11 11 12 13 15 15 16 20 23 23 21 19 17 15 13 10 8 7 6 5
6 6 4 6 9 10 11 15 17 17 16 14 11 7 2 4 4 3 5 4 4 4 6 9 11 14 14 16 17 18 19 21 22 22 20 18 16 14 15 16 19 19 17 19 21 21 21 19 17 17 18 19 19 20 19 18 16 16 16 17 18 18 17 15 14 14 15 14 14 14 13 13 12 11 12 12 12 13 13 13 13 15 16 16 19 23 23 21 20 19 17 14 12 9 7 6 5
7 9 6 6 8 8 11 14 16 14 11 9 6 3 3 4 5 4 5 6 5 5 7 11 13 14 14 15 16 17 18 20 20 20 20 21 20 18 16 16 17 18 19 19 20 21 20 18 17 17 18 19 19 19 20 18 17 16 15 16 16 17 16 15 15 15 16 15 15 15 15 15 13 12 11 11 11 12 13 14 14 15 17 17 18 22 23 21 20 19 18 16 13 10 8 7 5
8 11 9 11 11 10 12 13 15 13 10 9 7 2 4 4 4 2 5 7 6 7 9 12 14 14 14 14 15 16 17 18 19 19 19 21 22 21 18 16 16 16 17 17 18 19 19 19 18 18 20 20 19 19 20 19 18 16 16 15 15 16 16 16 16 16 17 16 16 16 17 16 15 13 12 11 10 11 13 14 15 16 17 18 18 20 23 22 20 20 19 16 14 11 9 8 6
6 8 7 9 9 10 12 13 14 10 7 8 6 3 2 3 2 1 4 7 6 8 10 13 15 14 14 15 15 16 16 17 18 19 20 21 22 22 20 17 16 15 15 14 15 17 18 18 18 19 20 20 20 20 20 20 19 17 17 15 15 15 15 15 16 17 17 17 17 17 18 18 16 15 13 12 11 12 12 13 15 16 17 19 20 19 21 23 21 20 20 17 15 13 11 9 7
5 5 4 3 3 5 8 7 7 3 2 3 4 3 1 1 2 0 5 8 8 8 10 13 16 15 16 15 16 16 15 16 17 19 19 20 20 20 20 18 16 16 15 15 14 15 16 17 18 19 21 22 21 21 21 21 20 19 18 16 15 14 14 14 15 16 18 19 18 18 19 19 17 15 14 13 12 13 13 13 14 15 16 19 21 21 20 22 22 21 21 19 16 14 12 10 8
5 4 2 2 1 3 3 1 2 3 2 2 6 4 1 1 3 5 2 8 10 11 11 14 16 16 16 16 16 16 15 15 15 17 18 18 18 18 19 19 18 17 17 16 14 13 15 17 18 19 22 23 22 22 22 21 21 21 19 17 15 15 14 14 14 15 17 20 20 20 20 20 18 16 15 14 14 13 13 13 12 14 16 18 21 23 22 21 22 22 22 20 18 16 14 12 10
3 4 1 1 2 2 1 1 2 3 1 2 6 3 1 2 9 12 3 7 8 10 10 13 16 17 18 17 17 16 15 14 14 16 17 18 17 17 18 18 18 17 17 17 15 14 15 17 17 18 21 23 24 23 22 21 20 21 20 19 17 17 16 15 15 15 16 20 21 21 21 22 19 17 17 16 15 15 14 13 12 13 15 17 20 23 24 22 22 22 22 21 19 17 15 13 11
1 4 3 1 2 1 2 1 2 1 1 1 2 2 3 4 12 15 2 6 5 6 7 9 11 13 16 16 17 17 15 14 14 14 15 17 17 17 17 17 17 16 16 16 16 16 16 16 17 18 20 22 24 24 22 22 21 21 21 20 19 19 18 17 16 16 17 20 22 22 21 22 21 19 19 18 17 16 14 13 12 13 14 17 20 22 24 24 23 23 22 21 20 18 16 14 13
1 2 3 3 4 2 1 2 1 1 2 1 2 0 3 3 12 16 6 4 6 7 7 8 9 9 10 11 12 14 16 16 12 11 13 15 15 15 15 14 14 14 14 15 15 16 16 17 18 17 17 19 22 23 23 22 22 21 21 21 21 20 20 19 18 18 18 19 22 22 21 21 22 21 19 19 18 16 15 13 12 13 13 16 20 23 24 25 25 23 22 21 20 18 17 15 13
2 1 1 1 2 2 2 2 2 2 2 2 2 4 4 5 11 16 12 3 6 9 8 6 8 8 8 9 10 11 14 14 8 8 11 12 13 14 14 13 13 13 12 12 13 13 15 16 15 15 15 16 18 20 22 23 23 22 21 21 22 22 21 21 20 20 18 19 21 22 21 21 22 21 20 20 18 16 15 14 12 13 13 13 17 21 23 26 25 23 22 21 20 18 16 15 14
5 4 3 2 1 1 1 2 1 2 1 2 5 7 6 7 10 13 15 11 4 4 6 5 7 8 9 10 10 11 13 11 8 9 10 11 12 13 13 13 12 12 11 10 11 11 11 11 11 12 13 14 16 17 19 23 24 23 22 20 20 21 22 22 22 22 19 18 20 21 21 21 22 21 21 20 19 17 16 15 14 13 13 13 14 16 20 24 24 22 21 20 19 17 15 14 14
7 5 4 4 4 2 1 1 1 2 4 5 5 7 7 9 11 13 14 14 14 12 9 7 5 5 7 10 11 12 11 9 9 11 13 13 13 12 12 12 11 11 10 9 9 10 11 12 14 14 11 11 14 15 17 22 24 22 21 21 22 23 24 24 24 23 19 18 20 21 22 22 23 23 22 21 20 18 18 17 16 15 15 15 15 15 18 21 23 22 21 19 18 17 16 15 14
6 5 4 4 4 3 1 0 2 1 4 6 6 10 10 10 11 12 12 15 19 18 15 13 11 8 6 7 10 11 10 11 13 15 15 13 13 12 10 10 10 11 11 11 11 9 11 14 18 20 16 14 15 15 16 19 22 21 21 22 23 23 24 25 25 22 20 20 21 22 23 24 24 24 24 22 21 20 19 19 18 18 18 18 18 17 18 19 20 20 21 20 19 18 18 17 15
6 5 4 2 3 2 2 2 2 0 3 3 5 12 11 10 10 11 13 16 18 18 17 16 15 14 12 11 9 8 8 9 11 12 12 11 11 10 9 10 11 13 13 13 13 11 12 14 16 16 15 16 16 16 16 16 17 18 20 20 20 20 21 23 24 23 22 23 23 23 24 24 25 25 25 24 22 22 21 21 21 20 21 20 20 20 20 19 20 21 21 21 20 19 18 17 16
4 3 3 3 2 1 1 3 3 1 4 4 5 11 10 8 10 12 15 15 16 18 18 18 18 18 18 16 14 11 9 9 9 9 9 8 7 6 6 7 8 9 9 10 10 10 11 11 9 9 11 14 16 17 19 18 17 17 18 19 18 19 20 22 23 24 24 24 24 24 24 25 26 27 27 26 24 24 23 23 23 23 22 22 22 22 21 21 23 23 22 22 21 20 19 17 16
2 3 3 3 2 2 3 2 2 3 4 6 9 10 7 6 8 11 15 16 16 18 19 20 20 20 20 20 20 18 17 15 14 13 12 10 9 9 8 9 10 8 6 5 6 8 10 6 4 5 10 12 15 18 20 21 21 20 19 19 19 19 21 22 23 24 25 25 24 25 26 26 27 29 29 28 26 25 24 24 25 24 23 22 22 22 21 21 22 21 21 21 20 19 18 17 16
2 3 5 3 2 3 2 3 1 4 5 4 8 8 4 6 8 9 11 14 16 17 20 21 21 21 22 23 23 22 20 19 18 16 15 13 13 13 12 11 11 8 7 5 3 7 6 2 4 4 8 10 13 17 19 20 21 21 20 19 19 19 20 23 24 24 25 25 25 25 26 27 28 29 30 29 26 25 25 25 26 26 24 23 24 22 21 21 20 20 21 21 19 18 18 17 17
3 4 6 5 5 4 2 4 4 4 3 3 1 3 3 5 8 9 8 10 14 16 19 19 20 21 22 23 23 22 22 21 20 19 17 18 16 15 15 13 12 11 10 4 2 5 1 5 2 1 4 7 11 14 16 19 20 19 19 19 18 18 20 21 22 22 23 24 24 23 23 26 29 29 30 28 25 24 26 27 26 27 26 25 25 23 22 21 20 20 21 21 20 19 18 17 17
3 4 6 4 4 4 3 4 3 2 4 2 2 1 3 2 6 8 7 10 13 14 16 17 19 21 21 22 22 22 22 21 22 21 20 20 18 16 15 15 14 12 7 1 4 3 3 5 3 2 3 7 9 12 15 17 17 16 17 19 19 19 20 21 20 21 23 23 23 22 22 24 27 29 30 28 25 25 27 27 27 27 27 27 25 23 22 21 20 20 20 20 21 20 20 18 15
3 3 7 7 5 6 5 4 3 1 2 3 1 1 3 4 4 6 5 9 12 12 13 14 18 20 20 21 21 21 21 21 21 21 21 20 19 17 14 13 12 8 3 1 3 2 4 7 6 5 6 8 11 13 13 14 15 14 15 16 18 20 22 22 21 22 24 23 22 22 22 23 25 28 30 28 25 26 27 28 28 28 28 28 26 23 22 21 21 20 19 20 21 21 20 18 15
1 4 7 7 5 5 4 3 2 1 1 4 2 1 3 3 2 3 4 7 10 11 11 12 16 19 19 20 20 20 21 21 21 21 21 20 18 17 13 10 7 2 1 3 5 4 5 7 8 9 10 11 14 14 13 13 14 13 14 15 16 18 19 20 21 22 23 21 19 19 20 20 21 24 26 25 25 25 26 28 29 29 29 28 26 24 22 21 21 20 20 21 22 21 20 18 16
2 7 6 4 3 3 2 2 2 1 3 5 4 1 2 3 1 1 3 5 7 8 8 11 16 18 18 19 20 20 20 21 20 20 21 20 18 16 13 10 7 3 2 4 7 8 8 8 9 10 11 12 13 13 13 12 12 12 13 15 16 16 16 19 20 21 20 18 17 16 16 16 16 19 21 22 23 24 26 27 28 29 29 27 25 23 22 21 20 20 21 22 21 20 19 17 16
8 8 6 5 3 2 1 1 1 3 4 2 2 3 2 3 1 0 2 3 4 6 7 10 15 18 18 19 19 20 20 21 19 18 19 18 17 15 13 12 11 9 7 4 5 7 9 10 11 12 12 13 13 13 12 11 12 12 13 15 17 17 17 19 19 19 18 15 15 15 13 12 11 12 16 18 20 22 25 26 28 29 28 26 24 22 22 21 21 21 22 21 21 20 18 17 16
7 5 4 5 3 1 2 2 1 5 4 2 2 3 2 3 2 3 4 5 7 7 8 9 12 15 17 17 18 20 21 22 21 20 19 18 18 17 16 15 14 13 12 11 9 8 8 8 10 12 12 13 13 12 11 10 11 12 14 16 18 18 17 18 19 19 16 13 11 12 13 12 11 12 14 17 19 20 23 25 27 28 27 26 24 21 21 21 21 22 22 22 22 20 19 18 17
4 4 7 7 4 3 4 3 3 4 2 2 1 3 1 4 4 7 8 8 10 11 11 11 12 14 14 15 17 19 20 21 23 22 20 19 19 19 19 18 17 16 15 14 14 12 11 10 11 11 12 13 13 12 11 11 11 13 15 17 19 19 18 18 18 18 16 13 9 10 12 11 12 14 15 16 18 18 21 24 25 25 25 24 22 21 22 22 22 23 23 23 23 21 20 19 18
6 6 8 8 5 6 5 3 2 2 2 1 3 3 3 5 5 8 9 10 13 14 14 14 14 13 13 13 15 17 18 20 21 22 22 21 20 20 19 19 19 17 16 15 16 15 13 12 12 12 13 14 13 13 13 12 13 15 16 17 19 18 17 16 15 14 13 13 10 10 11 10 11 13 13 14 15 16 19 22 24 24 24 23 23 23 23 23 24 25 25 24 24 22 20 20 19
5 3 4 5 4 4 4 3 3 3 3 2 2 1 4 4 4 9 12 13 16 16 14 14 14 12 12 12 13 15 17 19 20 20 21 21 21 20 18 17 18 17 16 16 15 15 14 13 13 13 13 15 15 15 15 15 16 18 18 17 16 15 14 13 12 10 9 11 12 12 12 11 11 11 12 13 13 14 17 22 24 25 25 24 24 25 25 25 26 27 26 25 25 23 21 20 20
3 1 2 3 3 3 3 1 1 3 3 2 3 2 2 2 4 10 13 13 15 15 13 14 13 11 11 12 13 14 15 17 19 19 20 20 20 20 19 18 17 17 17 16 14 13 12 11 12 12 13 15 16 15 15 14 15 17 17 15 13 11 10 9 9 8 7 7 10 13 14 13 12 12 13 13 12 13 16 21 24 25 26 26 25 25 25 25 27 27 26 26 25 23 21 21 20
3 3 4 2 2 5 5 2 2 1 3 2 1 2 4 3 4 9 11 10 11 12 12 13 12 11 12 13 13 13 13 16 17 17 19 20 19 20 20 20 19 17 17 16 15 14 12 11 11 10 10 12 13 14 14 14 13 13 13 12 11 10 10 10 9 9 8 7 8 11 13 14 13 13 12 12 12 13 15 19 22 24 26 26 24 24 25 25 26 27 26 25 24 23 21 21 21
5 5 6 3 3 3 3 3 2 1 3 2 0 4 7 5 4 7 10 9 8 8 10 12 12 12 12 12 12 12 13 15 16 16 18 19 19 20 20 20 19 18 17 15 14 14 13 13 13 12 11 10 11 12 13 14 15 14 12 12 11 12 11 12 12 11 11 10 10 11 13 14 14 12 12 12 13 13 15 18 21 23 25 25 24 24 25 25 25 27 26 24 23 22 21 21 21
2 6 6 3 2 3 1 2 3 4 3 2 3 5 5 5 3 5 9 9 8 7 8 10 11 12 11 11 12 12 12 14 15 16 17 19 19 19 19 19 19 18 16 14 13 13 13 13 13 13 14 13 12 11 11 13 14 14 13 12 12 12 12 12 12 13 13 12 11 13 14 15 15 13 12 12 13 14 16 18 20 22 23 23 23 23 24 25 26 27 27 25 24 23 22 21 21
3 6 5 0 1 3 2 2 2 4 4 3 4 4 5 4 2 4 8 10 9 7 7 9 11 11 11 12 12 11 11 12 13 15 17 18 18 19 20 20 19 19 18 16 14 13 13 14 14 14 14 14 13 12 12 13 15 15 14 14 12 12 10 10 11 12 14 14 13 14 16 16 15 14 12 12 13 14 16 18 19 20 22 22 22 23 24 25 27 27 26 25 25 23 22 21 21
4 7 6 2 2 2 2 2 2 2 5 4 4 3 4 2 1 2 8 10 7 8 9 10 11 11 11 12 11 10 10 11 13 16 18 18 18 19 19 19 18 18 19 19 18 18 17 17 18 17 16 15 14 13 12 13 14 15 15 15 15 13 11 10 11 11 12 14 14 15 16 16 15 15 13 13 13 14 17 19 19 20 22 23 22 22 23 25 28 28 26 25 24 23 21 21 20
3 5 5 4 4 4 5 3 1 2 3 4 4 3 3 2 3 2 8 9 8 10 12 12 12 12 11 10 10 10 10 12 14 16 17 17 18 19 19 19 19 19 21 22 22 22 22 22 21 20 20 19 18 16 15 15 15 15 15 14 14 15 15 15 14 12 12 13 14 15 16 16 16 15 14 13 13 15 18 20 20 21 22 22 22 22 22 24 26 26 24 23 23 22 21 21 20
Wind_Direction
221 219 205 190 164 152 133 129 146 56 131 226 182 236 215 211 321 288 278 293 291 3 11 358 19 88 102 102 110 104 54 18 176 62 85 143 155 151 155 161 165 169 170 172 174 172 173 175 178 182 182 183 181 179 178 176 177 177 177 174 173 175 174 168 163 160 158 158 153 146 138 132 124 114 109 103 102 105 114 119 122 124 122 120 117 116 114 113 114 113 113 114 113 112 111 110 108
210 203 183 167 155 156 151 123 206 86 175 235 190 201 52 121 238 244 260 306 330 330 5 27 54 56 65 94 100 99 55 48 140 102 122 143 145 146 154 162 167 168 170 172 174 173 174 176 179 182 182 183 180 177 177 176 177 176 173 170 171 172 169 164 162 161 160 161 154 147 141 136 128 118 112 106 105 110 120 122 123 126 125 123 122 119 117 116 115 115 114 115 115 114 111 109 108
205 187 164 154 145 134 138 100 211 149 186 230 223 192 150 169 204 231 241 273 310 298 293 320 20 24 8 115 70 32 64 74 137 123 130 143 148 151 156 164 168 170 171 171 174 175 175 176 178 181 182 181 179 177 177 178 179 176 171 169 171 171 168 165 162 162 162 162 154 150 145 139 130 122 117 111 109 112 121 124 125 129 129 128 126 123 120 120 118 117 118 117 115 111 109 109 109
197 177 157 146 137 116 121 48 150 161 201 219 273 184 197 208 201 230 249 295 313 295 279 308 48 30 25 106 51 37 102 132 151 136 139 150 155 154 156 163 167 170 171 172 175 176 177 177 178 181 181 180 178 176 177 180 180 175 171 170 171 171 170 167 163 163 163 162 156 152 147 140 132 126 122 119 114 113 121 126 129 131 132 131 129 129 127 126 125 124 121 116 113 110 110 109 108
188 171 158 145 149 122 114 90 112 191 213 170 334 160 191 208 219 288 287 317 327 296 227 169 85 66 59 75 22 46 106 124 155 147 146 152 154 153 156 162 166 169 173 176 176 178 179 178 178 180 180 179 177 176 178 179 176 172 170 171 172 173 173 170 166 164 164 163 158 153 149 142 135 129 125 124 120 115 120 126 131 132 132 134 135 137 136 135 133 128 121 114 113 111 111 108 106
178 162 150 130 115 112 137 155 158 222 223 173 256 308 149 198 278 289 304 326 359 37 179 168 131 120 84 55 38 96 115 125 159 153 146 150 153 155 155 162 168 170 175 178 178 179 180 179 179 180 180 181 179 178 178 175 171 170 171 172 174 175 175 172 170 167 165 164 160 155 151 144 138 134 127 126 125 119 121 125 128 130 131 135 140 141 140 139 134 128 120 114 113 110 108 107 108
166 154 139 118 81 78 194 208 189 240 216 179 245 292 290 249 260 289 314 330 44 72 140 149 138 129 101 47 57 113 135 136 156 155 149 151 156 158 158 165 170 173 178 180 180 181 181 181 180 181 182 182 181 178 175 172 167 169 171 172 175 176 175 174 175 170 166 166 161 157 153 148 142 140 131 127 129 122 122 127 128 129 130 135 141 142 141 138 132 126 119 115 113 110 109 110 111
158 145 118 132 77 35 166 175 227 241 194 207 258 274 279 285 268 286 302 295 355 56 127 138 138 126 103 281 102 132 129 134 152 160 156 154 158 161 163 168 172 176 180 181 181 182 181 181 182 183 184 184 181 177 173 169 164 165 167 170 174 176 176 177 177 172 168 167 163 160 157 152 147 143 134 129 130 123 123 128 129 130 132 137 141 141 140 134 127 121 116 115 115 113 113 114 112
153 134 108 134 156 59 128 257 259 230 250 260 265 262 269 277 263 261 263 259 284 166 140 159 164 139 145 161 133 132 130 139 152 162 161 158 160 165 168 171 175 179 180 182 182 181 181 181 184 186 187 186 181 177 172 167 164 161 160 164 170 173 173 175 177 174 170 167 165 161 160 157 150 144 139 133 132 128 127 130 131 133 136 140 143 141 138 131 122 115 113 116 117 115 114 113 110
147 119 114 119 163 211 204 258 258 241 261 266 277 272 273 276 254 240 248 264 146 136 126 169 168 129 134 128 127 138 142 150 157 165 167 164 165 170 172 175 181 184 184 184 182 181 181 181 185 188 189 187 182 179 175 170 167 160 157 161 164 165 163 166 172 172 169 167 165 163 163 159 150 146 145 140 136 136 133 133 136 138 140 144 147 145 141 132 119 112 114 119 118 116 114 111 107
139 98 125 145 181 221 226 246 257 275 278 288 288 278 290 288 250 229 225 137 128 134 134 136 131 126 124 108 157 149 151 159 164 167 171 172 171 175 177 180 186 189 190 187 185 184 182 181 184 188 189 188 185 182 180 177 170 162 161 164 163 162 159 158 162 164 163 163 164 164 162 156 151 150 149 143 140 142 140 139 141 143 145 148 152 150 146 134 116 112 116 120 119 115 111 107 102
151 99 141 181 193 204 218 257 273 293 289 306 300 308 329 309 226 206 184 154 143 150 154 157 154 138 119 141 173 160 160 164 167 169 175 178 178 181 183 185 188 194 196 191 188 186 183 182 182 187 190 190 189 187 187 184 173 165 166 170 169 166 161 155 155 155 153 151 155 159 160 158 155 154 152 144 142 146 146 146 147 148 149 152 156 155 150 137 119 115 119 120 118 112 108 103 97
152 135 159 159 168 176 159 252 287 300 306 341 302 327 336 308 218 168 146 139 145 155 162 170 159 142 111 155 176 171 167 167 168 170 176 182 184 187 189 188 190 195 198 195 192 189 185 184 185 188 190 191 191 191 191 187 177 172 173 178 177 170 161 152 151 151 147 143 146 152 158 162 157 159 161 149 146 154 154 153 154 153 154 156 160 161 159 146 128 122 122 122 117 110 106 99 92
143 151 176 149 117 145 178 259 289 268 321 41 322 342 355 1 249 154 130 120 134 151 143 156 156 139 125 151 188 179 169 168 167 170 177 183 189 191 188 185 188 191 195 197 196 194 189 187 188 190 191 192 193 193 192 189 184 182 185 188 183 173 160 150 150 150 148 146 147 151 155 160 159 165 172 155 150 159 161 161 160 159 159 160 164 168 171 163 142 130 127 124 115 109 104 94 89
154 133 130 126 135 175 213 233 320 206 24 90 341 352 4 18 75 143 112 112 130 138 141 154 163 146 157 158 202 181 171 167 166 169 177 183 187 187 181 181 186 186 192 196 195 195 193 191 191 190 192 193 193 193 192 188 189 192 195 195 188 178 166 159 157 153 153 151 152 151 147 154 159 167 175 161 152 158 166 168 166 164 164 165 168 174 180 178 159 140 132 122 111 107 103 91 86
155 121 100 142 162 199 194 187 193 150 9 194 348 355 4 39 64 110 76 129 132 142 148 165 184 270 185 167 88 173 173 165 165 171 177 182 183 180 180 185 188 186 192 196 194 193 194 194 192 190 190 192 192 192 191 188 189 194 197 196 190 180 173 169 163 159 161 157 154 147 140 148 156 164 177 170 157 158 165 171 170 168 168 170 172 178 185 187 176 153 138 123 112 110 105 94 87
150 125 132 163 182 203 196 194 187 139 335 273 352 356 357 41 52 82 109 133 132 154 176 195 196 254 210 188 108 172 175 165 168 176 178 181 179 178 181 186 189 189 191 194 194 193 193 193 191 190 190 191 191 192 192 190 188 191 194 191 186 179 177 177 170 168 167 162 159 154 150 157 163 166 183 182 167 161 163 170 174 172 171 173 176 181 188 193 186 166 147 131 121 118 113 102 94
151 139 169 192 199 204 194 192 186 70 332 317 339 349 337 349 92 111 114 123 127 163 205 209 204 245 210 193 160 176 176 169 175 181 181 181 180 180 183 186 190 191 191 194 196 194 192 191 190 190 192 193 194 196 196 195 194 194 195 191 186 181 182 184 181 178 173 171 171 170 168 171 173 171 181 192 178 168 165 169 174 174 173 175 178 183 190 195 191 175 155 141 131 125 117 106 99
157 114 192 210 196 202 210 207 224 258 302 317 321 332 324 294 149 146 132 132 137 159 199 205 205 224 203 192 177 179 179 177 182 187 186 184 182 183 186 187 191 193 193 197 197 194 193 192 193 193 193 196 196 199 199 199 199 198 198 197 193 187 189 191 186 184 181 182 184 184 183 181 182 179 186 195 186 176 170 169 174 177 175 176 181 186 191 196 195 184 167 151 138 130 123 111 101
176 161 212 221 204 245 251 243 253 263 284 307 318 329 329 313 199 198 166 152 183 193 178 184 191 190 190 188 179 180 184 186 188 192 190 186 185 185 188 188 192 194 192 196 196 195 196 195 199 197 195 196 195 199 202 202 202 201 200 201 200 195 197 199 194 192 189 191 194 193 193 188 185 186 191 195 190 184 178 173 174 177 178 178 182 187 192 196 197 191 179 160 145 139 133 121 108
170 189 221 207 156 247 249 258 271 277 284 287 316 329 338 343 301 207 166 151 191 225 196 177 181 181 182 185 183 184 189 192 193 195 193 186 186 185 187 188 190 192 189 192 193 193 198 198 198 198 198 198 199 202 204 205 205 206 204 204 204 200 200 204 202 199 196 197 200 198 196 194 192 191 190 189 192 191 185 180 176 178 180 181 184 189 192 195 197 197 191 174 152 144 141 128 112
162 196 236 222 187 252 264 283 293 296 298 296 314 315 325 339 316 187 174 174 145 204 205 181 179 181 183 184 183 188 194 196 196 197 196 189 188 189 188 187 188 189 185 189 197 193 197 204 200 199 204 204 206 207 208 209 206 208 210 208 207 204 201 204 204 200 200 200 200 200 198 199 196 194 191 188 193 192 187 187 181 178 180 184 187 190 193 194 196 199 200 191 166 149 148 139 120
197 198 231 233 227 244 270 290 294 291 290 294 295 290 302 330 319 196 218 283 167 189 186 164 179 184 187 185 185 190 196 200 199 198 198 193 190 193 191 189 189 189 185 192 203 194 195 209 208 207 208 206 209 210 211 212 207 209 214 212 211 209 205 204 202 201 205 205 204 203 201 201 198 194 191 191 196 192 186 189 185 178 179 185 189 191 192 193 194 199 203 200 184 161 156 153 132
217 220 222 243 240 245 269 285 290 287 285 288 281 280 275 270 291 228 251 270 233 220 164 164 177 182 185 185 188 193 198 203 202 200 198 193 190 194 195 192 191 191 191 196 204 202 203 212 214 213 210 207 209 209 211 210 205 209 213 213 214 214 210 206 204 203 207 209 209 207 202 202 201 194 190 194 199 195 190 190 187 181 180 186 191 192 193 194 193 198 204 204 196 178 168 166 151
209 224 231 252 254 258 277 285 289 290 290 293 281 265 212 207 210 190 238 232 227 235 175 171 171 178 185 187 193 197 203 205 204 203 200 199 197 200 203 202 198 197 201 204 207 213 217 218 218 216 211 210 210 209 211 208 205 208 210 212 215 217 214 211 209 209 208 208 211 208 203 203 204 198 192 196 199 198 196 192 190 186 183 187 193 195 196 196 195 198 205 207 204 194 183 179 170
199 213 225 246 258 271 282 285 288 292 295 295 271 249 96 153 187 185 224 210 202 209 183 174 171 179 186 189 197 202 207 208 207 206 205 207 208 210 211 210 210 208 210 213 214 218 223 221 220 218 215 216 213 211 213 212 211 210 211 215 217 217 215 215 215 213 211 209 212 210 206 205 204 202 199 201 200 200 199 196 194 191 189 189 194 199 200 199 198 199 206 208 208 203 194 191 186
188 205 221 241 254 273 278 278 281 286 288 270 248 270 60 123 182 199 213 197 181 183 179 178 179 184 189 193 202 206 211 213 212 212 211 215 216 216 216 213 219 221 219 221 220 221 223 220 218 218 219 221 218 215 216 218 218 216 218 221 221 220 217 218 218 216 215 212 214 214 210 207 204 203 205 207 205 204 202 199 198 195 194 192 195 202 203 203 202 202 207 210 211 209 203 200 197
189 191 209 239 252 267 264 267 277 281 283 263 233 235 41 100 189 181 180 175 166 180 179 181 187 191 193 199 206 210 214 217 218 220 220 222 221 221 219 216 221 228 231 231 229 227 227 224 220 218 221 225 222 219 219 222 225 225 228 228 226 227 224 222 221 219 218 216 216 216 212 210 208 205 208 210 210 210 207 203 202 200 197 196 197 202 206 207 206 206 208 211 212 211 209 208 207
177 177 200 233 244 259 244 256 277 249 275 274 193 209 308 133 226 171 173 172 169 186 189 187 193 198 199 204 210 213 216 220 223 225 227 228 227 227 226 224 226 233 237 238 238 235 233 230 225 221 222 226 225 223 223 225 228 232 236 235 233 236 233 228 228 226 222 219 219 218 214 213 212 209 210 213 214 214 211 208 208 207 203 200 200 203 205 208 209 209 210 211 212 212 212 213 216
159 159 225 249 215 245 216 282 268 193 279 236 178 200 296 205 317 348 213 183 176 189 198 196 197 204 207 209 213 215 217 221 226 228 232 234 233 233 234 235 235 240 243 243 244 242 238 235 231 226 224 226 228 227 226 227 230 235 239 240 240 243 241 237 235 232 226 222 221 220 216 213 213 212 212 215 218 216 213 213 212 212 210 204 202 205 206 208 209 210 211 211 211 213 214 217 221
154 144 186 254 206 212 63 12 188 174 280 206 195 215 43 34 360 355 281 202 194 200 205 202 202 207 211 215 219 220 220 223 229 232 236 240 241 239 239 243 244 248 251 249 250 251 248 241 237 233 228 228 229 230 230 231 234 239 242 244 245 248 249 245 241 237 231 225 223 221 217 214 213 213 213 215 218 218 215 216 217 218 216 209 206 206 206 208 209 209 210 211 211 213 215 217 220
83 172 170 136 198 222 18 66 182 176 81 129 218 210 94 45 6 4 325 208 235 244 240 224 218 217 216 221 226 227 226 227 231 236 243 245 248 248 246 250 252 257 259 256 257 261 261 254 248 243 236 232 232 233 233 234 237 241 246 248 249 251 251 251 247 242 235 228 225 224 220 216 214 214 213 215 219 219 217 218 222 222 220 214 210 208 207 208 210 210 210 211 214 216 218 220 222
21 216 169 151 187 195 54 101 109 36 125 109 350 152 104 29 358 12 32 220 249 266 270 251 247 246 237 238 241 242 236 234 243 255 257 256 258 258 255 257 261 268 270 268 268 270 272 268 260 255 250 242 238 238 237 238 240 243 248 251 253 253 252 253 252 247 240 232 227 226 223 218 217 216 215 216 220 219 217 219 222 223 221 217 213 210 208 208 210 211 211 212 215 218 222 224 225
147 204 136 146 192 185 164 120 61 58 164 190 75 76 66 21 2 17 27 355 245 256 275 269 261 258 256 258 263 266 252 252 285 297 278 276 273 267 265 268 271 278 285 291 292 287 284 278 272 268 265 259 253 251 249 247 245 246 249 253 255 256 254 255 255 251 244 237 232 228 225 222 219 218 218 218 220 219 217 217 221 223 221 216 213 211 209 209 210 212 213 215 216 219 224 226 224
156 168 150 133 171 186 173 139 29 13 111 161 106 88 56 32 20 21 22 27 37 292 299 293 278 264 262 267 267 270 268 281 326 320 302 303 295 283 277 276 280 288 297 314 330 334 323 311 305 288 271 269 267 266 266 261 256 251 249 251 254 257 256 256 257 256 249 240 237 232 228 224 221 221 220 219 220 220 217 216 218 221 218 215 213 211 210 209 209 213 216 218 219 218 218 218 217
156 162 157 146 156 167 220 165 343 25 71 62 85 92 59 35 27 22 24 35 42 30 14 1 340 297 273 272 269 272 281 302 327 320 313 316 314 307 295 289 292 294 295 309 334 352 347 347 349 333 311 292 275 265 265 261 256 251 248 250 252 256 259 259 259 257 251 244 239 235 231 227 224 223 221 219 220 222 220 218 217 217 217 215 213 212 212 210 209 213 216 217 218 216 212 209 212
131 130 138 134 156 161 204 144 20 63 81 55 77 86 62 43 34 25 32 43 41 36 32 28 26 20 350 312 294 293 301 310 316 316 316 319 323 322 313 304 296 292 287 285 288 303 325 334 342 343 334 310 285 269 262 255 251 248 247 251 254 257 259 261 261 257 253 247 242 238 233 229 228 227 224 219 219 221 221 219 216 215 216 214 213 211 212 211 211 213 215 214 215 217 214 209 208
126 133 132 133 183 170 150 65 13 295 107 99 97 82 65 52 48 34 38 48 44 40 40 39 39 39 32 15 353 335 325 325 327 326 327 329 327 326 319 305 296 295 292 289 289 302 322 325 325 331 325 305 290 276 270 265 260 256 253 255 259 261 260 262 263 261 259 253 247 244 237 232 233 233 229 222 219 221 220 218 217 216 214 212 212 211 211 209 209 210 213 214 214 216 218 212 206
136 136 138 155 176 178 129 62 1 359 104 151 122 84 75 63 59 49 47 52 51 49 50 49 49 47 43 37 33 32 31 28 23 18 19 13 360 354 336 319 315 312 312 315 320 329 329 326 323 315 305 297 286 274 272 272 271 270 268 265 263 263 263 265 267 268 268 261 253 250 245 239 238 237 234 227 221 221 219 218 219 219 215 212 213 214 215 211 210 211 214 216 214 213 214 211 207
141 150 167 159 150 193 158 95 351 23 79 156 132 96 84 71 66 57 53 56 56 55 55 53 52 51 48 48 48 52 58 60 58 59 58 47 34 29 15 4 1 354 0 1 2 350 321 323 28 330 297 284 270 270 273 275 275 275 276 274 270 268 268 268 267 266 269 266 259 254 249 244 240 239 237 230 223 220 219 218 220 221 218 214 215 216 219 217 215 215 217 218 215 212 212 209 207
179 184 187 162 173 218 135 121 171 64 66 154 134 108 80 49 56 57 53 58 58 54 54 52 50 49 49 50 49 52 59 63 65 65 65 61 58 59 53 38 29 41 69 78 19 356 317 215 93 356 312 290 265 264 269 276 281 280 278 276 272 269 267 267 265 264 266 266 263 259 253 247 245 243 240 233 225 220 221 220 220 221 219 216 216 216 220 220 218 216 219 221 219 217 217 213 210
190 213 210 189 181 200 110 125 152 113 129 206 181 127 101 44 53 58 51 59 59 55 55 52 49 47 48 47 44 47 52 56 59 57 60 66 72 77 78 74 78 94 97 94 324 344 219 182 170 290 297 290 271 267 274 281 286 284 280 278 274 270 267 270 273 274 274 273 272 268 261 253 247 245 242 235 226 221 223 222 220 221 219 218 217 216 220 222 219 219 221 224 222 221 222 222 219
187 204 198 176 160 181 155 145 161 145 153 162 309 212 135 91 57 52 52 67 63 58 57 53 52 50 48 47 43 44 47 50 57 57 58 62 64 72 81 90 102 115 116 163 271 296 206 198 236 257 254 272 270 269 272 279 289 291 288 285 283 281 279 279 283 285 285 285 282 277 272 260 249 243 239 233 226 223 224 222 220 220 219 219 218 216 222 225 222 222 222 225 226 224 224 224 225
178 178 165 158 168 194 185 172 189 185 117 102 359 270 132 127 69 46 66 79 67 61 59 53 52 49 47 47 43 43 45 49 56 59 61 60 60 65 75 92 107 112 110 208 235 250 232 233 262 294 295 290 289 286 284 293 307 311 304 294 286 284 285 285 285 288 290 290 287 285 281 266 248 240 237 233 228 225 224 222 219 219 218 219 218 216 222 226 225 223 222 223 226 228 226 224 227
195 156 151 158 174 185 179 187 187 123 176 159 146 230 142 125 46 45 84 84 70 62 61 56 51 47 44 43 40 41 46 53 57 58 60 62 64 67 71 87 106 97 304 240 240 241 244 257 278 296 301 299 300 304 308 314 321 323 316 306 294 288 288 287 288 292 295 294 291 289 285 268 244 233 235 237 233 228 227 224 220 219 218 218 219 217 220 228 229 225 221 220 223 226 227 225 227
139 129 116 102 83 85 128 195 165 134 224 183 148 253 171 120 351 71 87 73 69 64 62 59 52 48 44 40 37 37 44 53 57 56 57 59 61 65 68 75 80 45 342 270 269 274 273 276 281 287 290 289 290 298 306 310 316 322 318 310 306 302 297 292 293 298 300 299 296 294 287 269 244 231 236 240 236 232 232 228 223 221 219 218 220 218 219 228 231 225 220 221 222 224 226 226 225
127 122 105 96 80 62 87 70 102 186 217 171 90 305 251 147 200 140 87 72 77 74 67 59 50 45 41 37 33 34 39 45 50 52 52 53 53 55 57 57 54 43 28 359 310 300 293 284 280 283 285 283 285 293 301 307 315 317 312 307 305 305 303 299 299 301 300 295 298 301 291 273 256 244 246 248 243 237 236 233 228 224 219 218 222 221 220 225 228 224 221 220 220 222 226 226 222
137 128 128 132 113 117 143 104 204 212 204 103 54 295 270 156 162 144 124 99 81 74 71 64 54 45 38 35 33 34 38 40 44 46 43 41 41 40 39 39 38 34 28 22 11 353 335 314 295 290 288 286 291 302 308 310 309 304 301 300 298 297 301 304 305 305 296 283 290 299 291 281 274 267 264 260 253 243 240 237 233 227 218 218 223 222 221 224 225 223 223 222 220 219 224 225 222
174 144 154 168 159 166 184 180 198 208 185 68 321 279 34 88 119 133 128 105 87 78 76 73 65 55 42 35 35 37 39 40 43 44 41 38 36 35 33 31 30 28 24 21 15 8 1 346 329 321 315 306 304 308 311 311 304 298 296 295 294 297 303 306 306 304 294 280 278 287 289 287 282 282 283 275 263 251 244 239 235 231 223 221 224 223 225 228 226 223 222 223 222 218 220 224 222
183 167 173 180 168 169 177 173 182 186 131 72 308 283 118 110 120 122 116 105 96 87 82 78 71 65 53 40 38 41 42 42 42 41 42 42 41 42 41 36 34 34 30 22 13 9 6 355 342 337 331 324 318 308 301 298 298 299 298 297 296 299 303 306 305 303 298 291 286 284 286 286 284 287 289 282 272 257 247 241 236 233 229 225 224 224 226 228 226 223 222 223 223 218 218 222 221
175 167 180 179 170 171 162 159 168 149 122 83 347 314 134 135 129 116 112 107 100 94 89 84 76 69 61 48 41 41 42 42 42 42 41 42 43 45 47 45 41 39 35 22 11 10 9 2 352 340 328 323 321 314 304 293 288 291 297 301 303 301 302 308 306 299 302 300 292 289 288 282 279 281 277 274 273 257 242 238 237 234 232 228 225 224 225 226 224 224 224 223 223 220 219 221 220
183 148 156 181 174 132 106 97 101 113 114 68 28 44 91 109 123 116 112 109 106 103 97 87 77 70 62 52 44 39 36 36 38 40 40 41 43 42 44 43 38 35 33 25 19 19 16 14 4 348 336 328 323 322 318 306 291 288 292 301 309 309 306 308 300 291 300 294 278 282 289 285 277 275 272 268 271 261 241 235 236 236 234 231 227 224 225 226 223 223 224 222 223 221 220 221 220
147 180 179 164 103 108 118 120 37 77 144 105 37 117 117 126 139 126 119 112 110 107 97 85 75 68 60 52 47 39 33 34 35 34 36 38 40 39 38 35 29 26 25 22 21 18 12 11 4 349 341 338 335 337 338 331 318 304 297 300 309 315 311 304 298 297 300 288 268 272 284 287 280 276 275 269 267 262 246 235 233 233 233 232 229 227 228 227 223 224 225 224 224 222 220 222 223
141 182 170 118 72 82 110 130 106 149 145 107 137 157 153 162 158 140 131 120 113 106 96 88 73 62 57 49 45 39 34 38 39 37 37 38 40 40 36 32 27 22 19 13 10 10 7 6 358 348 344 343 348 350 343 337 331 323 313 309 313 320 320 312 306 301 296 289 282 278 279 284 283 280 279 272 262 254 243 234 229 227 228 230 230 229 229 230 227 226 226 225 225 223 220 224 226
129 154 146 130 163 164 148 137 155 158 127 118 151 157 182 189 178 166 150 135 129 111 91 84 67 55 52 44 38 35 32 35 38 40 42 42 43 42 35 29 24 21 17 10 2 359 358 357 354 350 346 343 344 340 328 322 322 319 314 313 317 321 322 316 304 295 290 289 288 285 281 282 283 278 274 268 260 249 237 230 225 221 222 226 230 231 230 231 229 225 224 223 222 220 220 224 227
69 131 138 295 196 162 160 122 150 157 137 143 151 166 210 196 196 203 158 140 138 119 92 81 69 58 52 41 34 30 27 28 31 39 46 49 50 44 35 29 25 23 23 22 20 15 8 8 8 5 359 352 347 339 327 321 318 315 312 311 315 318 314 304 293 288 288 286 282 279 278 281 281 273 267 262 260 250 234 225 222 219 220 224 228 230 231 232 229 223 220 220 220 219 220 222 226
140 152 149 133 90 111 126 84 46 140 143 151 151 174 202 161 14 203 142 131 130 115 105 94 78 65 53 42 35 27 24 29 33 41 49 52 53 46 35 32 33 34 38 40 43 43 39 38 36 32 27 22 17 6 351 339 332 328 323 315 311 311 304 294 285 280 279 278 273 269 270 274 274 269 264 258 254 246 231 222 220 220 222 224 226 228 230 232 229 222 217 217 218 217 218 220 224
148 160 162 145 126 140 154 149 86 73 123 152 155 167 169 88 14 98 122 115 107 102 103 98 83 71 58 46 40 32 27 34 40 47 51 51 52 48 39 38 42 44 47 48 48 46 43 42 40 36 33 30 28 22 10 359 350 344 338 327 316 309 302 298 292 283 273 268 266 266 265 264 261 258 258 251 243 239 230 223 220 220 222 225 225 225 228 231 229 224 218 216 216 215 215 219 222